Regional Weather Roundup
Issued by NWS Wakefield, VA

Home | Current Version | Previous Version | Graphics & Text | Print | Product List | Glossary On
Versions: 1 2 3 4 5 6 7 8 9 10 11 12 13 14 15 16 17 18 19 20 21 22 23 24 25 26 27 28 29 30 31 32 33 34 35 36 37 38 39 40 41 42 43 44 45 46 47 48 49 50
000
ASUS41 KAKQ 270015
RWRAKQ

REGIONAL WEATHER ROUNDUP
NATIONAL WEATHER SERVICE WAKEFIELD VA
800 PM EDT MON SEP 26 2016

Note: "fair" indicates few or no clouds below 12,000 feet with no
significant weather and/or obstructions to visibility. * = Denotes
station may not report precipitation (e.g., rain,snow,etc.),
thunder or fog.

VAZ042-051-052>054-056-270100-
NORTHERN VIRGINIA

CITY           SKY/WX    TMP DP  RH WIND       PRES   REMARKS
WASH NATIONAL  CLOUDY    70  60  70 S9        30.04S
DULLES         CLOUDY    67  60  78 S12       30.03R
FORT BELVOIR   CLOUDY    68  60  74 S2        30.03S
QUANTICO       CLOUDY    71  62  73 S10       30.03F
FREDERICKSBRG* CLOUDY    68  63  84 CALM      30.02F
STAFFORD*      CLOUDY    67  62  84 CALM      30.06F
WARRENTON      CLOUDY    68  57  68 SE6       30.03R
CULPEPER*      LGT RAIN  68  63  84 S6        30.04R
MANASSAS*      CLOUDY    66  63  88 CALM      30.03R
LEESBURG*      CLOUDY    68  63  83 S12G24    30.03F
WINCHESTER     LGT RAIN  64  63  94 SE8       29.98F
FRONT ROYAL*   FAIR      64  63  94 S3        29.97F
LURAY*         RAIN     N/A N/A N/A SW3       29.99F
$$

VAZ048-049-060>072-079>083-270100-
CENTRAL AND SOUTH CENTRAL VIRGINIA

CITY           SKY/WX    TMP DP  RH WIND       PRES   REMARKS
RICHMOND       CLOUDY    69  62  78 S5        30.04R
CHESTERFIELD*  CLOUDY    70  52  52 S6        30.05S
PETERSBURG*    CLOUDY    70  65  82 CALM      30.05S
HANOVER        CLOUDY    69  60  73 CALM      30.05S
TAPPAHANNOCK*  MOCLDY    69  60  75 CALM      30.05R
QUINTON*       CLOUDY    69  63  81 CALM      30.03F
CHARLOTTSVILLE CLOUDY    66  63  90 S6        30.03S
GORDONSVILLE*  CLOUDY    66  64  94 CALM      30.03  FOG
ORANGE*        HVY RAIN  68  64  88 CALM      30.07R
LOUISA*        CLOUDY    70  64  83 CALM      30.03S
BUMPASS*       CLOUDY    66  63  90 CALM      30.04S
FARMVILLE*     CLOUDY    70  64  83 CALM      30.04R
CREWE*         CLOUDY    69  68  96 CALM      30.04S
FORT PICKETT*  CLOUDY    69  67  93 S5        30.05S
CHASE CITY*    FAIR      68  66  94 CALM      30.04S
CLARKSVILLE*   CLOUDY    68  66  94 CALM      30.04S
SOUTH HILL*    CLOUDY    68  65  91 CALM      30.11R
LAWRENCEVILLE* CLOUDY    70  65  85 CALM      30.05R
EMPORIA*       CLOUDY    70  64  83 SE3       30.06R
$$

VAZ088>098-270100-
SOUTHEAST VIRGINIA

CITY           SKY/WX    TMP DP  RH WIND       PRES   REMARKS
NORFOLK        CLOUDY    72  64  76 S7        30.05R
VIRGINIA BEACH CLOUDY    72  63  73 S7        30.04S
NORFOLK NAVAL  CLOUDY    73  64  73 S5        30.07R
WEST POINT*    CLOUDY    71  60  68 SE6       30.06S
SALUDA*        CLOUDY    69  63  80 CALM      30.05R
NEWPORT NEWS   CLOUDY    72  62  71 S5        30.05R
LANGLEY AFB    CLOUDY    73  65  76 SW5       30.05R
FORT EUSTIS    CLOUDY    72  63  73 S6        30.03R
WILLIAMSBURG*  MOCLDY    73  63  68 S8        30.06R
HR EXEC AP*    CLOUDY    72  64  78 S3        30.07R
FRANKLIN*      CLOUDY    71  63  75 CALM      30.06R
US460-WAKEFLD  CLOUDY    70  62  76 VRB3      30.05R
$$

VAZ020-022-025-037-045-270100-
WEST CENTRAL AND SOUTHWEST VIRGINIA

CITY           SKY/WX    TMP DP  RH WIND       PRES   REMARKS
STAUNTON*      CLOUDY    63  62  97 S5        30.04S FOG
WAYNESBORO*    MOCLDY    64  62  96 S3        30.03F
HOT SPRINGS VA CLOUDY    50  50 100 SW5       30.10F FOG
LYNCHBURG      LGT RAIN  67  64  90 CALM      30.06S
DANVILLE       CLOUDY    71  67  87 CALM      30.04R
SOUTH BOSTON*  FAIR      68  66  95 CALM      30.04R
MARTINSVILLE   RAIN      67  65  93 CALM      30.07R
ROANOKE        LGT RAIN  67  67 100 SE3       30.05S
BLACKSBURG     LGT RAIN  66  65  98 CALM      30.10R
DUBLIN*        MOCLDY    69  68  97 S5        30.09R
MARION*        CLOUDY    65  63  94 W5        30.12S
HILLSVILLE*    RAIN      65  64  99 S5        30.09F
RICHLANDS*     CLOUDY    69  66  90 SW6       30.10S
WISE*          CLOUDY    68  64  88 CALM      30.11R
ABINGDON*      CLOUDY    68  66  94 W6        30.09R
$$

MDZ021>025-VAZ099-100-270100-
SOUTHERN MARYLAND AND THE DELMARVA PENINSULA

CITY           SKY/WX    TMP DP  RH WIND       PRES   REMARKS
PATUXENT RIVER CLOUDY    70  57  63 CALM      30.04R
BAY BRIDGE APT CLOUDY    70  57  64 MISG      30.04S
LEONARDTOWN    CLOUDY    68  55  64 CALM      30.06R
DOVER          CLOUDY    69  60  72 S5        30.04R
GEORGETOWN     CLOUDY    69  60  73 S6        30.06R
EASTON         CLOUDY    70  54  56 S3        30.08S
CAMBRIDGE      CLOUDY    66  55  68 SE3       30.05R
SALISBURY      CLOUDY    68  61  78 CALM      30.06R
OCEAN CITY     CLOUDY    73  63  70 S7        30.06R
WALLOPS ISLAND CLOUDY    73  65  75 S12       30.06S
ACCOMACK*      CLOUDY    71  63  77 S3        30.05R
$$

NCZ012>017-030>032-270100-
NORTH CENTRAL AND EASTERN NORTH CAROLINA

CITY           SKY/WX    TMP DP  RH WIND       PRES   REMARKS
ROANOKE RAPIDS CLOUDY    70  64  83 CALM      30.05R
RALEIGH        PTCLDY    72  66  81 SE7       30.05R
ELIZABETH CITY CLOUDY    73  64  73 S7        30.06R
AHOSKIE*       CLEAR     68  65  89 CALM      30.06R
EDENTON*       CLOUDY    76  66  71 SW6       30.06
CURRITUCK*     CLOUDY    72  67  82 CALM      30.07R
KILL DEVIL HLS PTCLDY    73  67  81 CALM      30.05R
MANTEO         MOCLDY    73  65  76 S6        30.06S
CAPE HATTERAS  CLEAR     78  64  61 S8        30.07R
TARBORO*       FAIR      70  65  84 CALM      30.06S
GOLDSBORO      CLEAR     74  69  86 E6        30.03R
WASHINGTON     CLOUDY    72  66  82 CALM      30.06S
GREENVILLE     MOCLDY    73  66  78 SE6       30.07S
NEW BERN       CLOUDY    74  66  76 CALM      30.07R
WILMINGTON     PTCLDY    75  67  76 E3        30.04S
$$

VAZ048-270100-
ELSEWHERE

CITY           SKY/WX    TMP DP  RH WIND       PRES   REMARKS
HARRISBURG PA  CLOUDY    66  60  81 VRB5      30.00S
BALTIMORE      CLOUDY    68  56  65 S8        30.03F
ANNAPOLIS      CLOUDY    70  58  65 S6        30.03S
ANDREWS AFB    CLOUDY    66  58  76 SE5       30.03S
PHILADELPHIA   CLOUDY    69  54  58 SE8       30.05S
HENDERSON NC   PTCLDY    67  62  83 S5        30.05R
GREENSBORO     HVY RAIN  68  67  96 SE7       30.05S FOG
ROCKY MOUNT    MOCLDY    71  66  84 SE3       30.05R
$$

VAZ100-270100-
MARINE

STATION/POSITION TIME  TEMP    WIND        PRES    WAVE   SWELL
                       AIR SEA DIR/SP/G            HT/PER HT/PER
                 (UTC) (F)     (DEG/KT/KT) (MB)    (FT/S) (FT/S)
BRANDYWINE LGT   2300   71     200/ 18/ 21   N/A
CAPE MAY NJ      2300   70 72  170/  8/ 12 1016.9F
LEWES DE         2300   71 73  180/  7/ 10 1017.0F
OCEAN-CITY-INLET 2300   72 73  200/ 10/ 14 1018.0F
WACHAPREAGUE VA  2300   73 74  170/ 10/ 13 1017.3F
THOMAS POINT MD  0000   72 74  190/ 17/ 20 1018.3R
GOOSES REEF MD   2300   72 75  210/ 12/ 16 1017.5R   2/ 3
COVE POINT MD    2300   71     210/ 14/ 18 1017.5R
SOLOMONS ISLAND  2300   71 76  160/  7/ 10   N/A
BISHOPS HEAD MD  2300   72 70  180/ 11/ 14 1017.5R
PINEY POINT MD   2300          180/ 11/ 12   N/A
POTOMAC MD       2300   72 75  200/ 10/ 12 1016.3R   2/ 3
CAMBRIDGE MD     2300   70 75  170/  2/  5 1016.4R
LEWISETTA VA     2300   71 74  200/  6/  9 1016.8R
RAPPAHANNOCK LGT 2300          150/ 13/ 15 1017.6F
STINGRAY PT      2300   74 76  120/ 16/ 17 1017.3F   2/ 3
YORK RVR RNG VA  2300   74     180/ 12/ 14 1016.6F
YORKTOWN VA      2300   72 77  160/  5/  7 1016.7F
JAMESTOWN VA     2300   73 76  150/  8/ 10   N/A     0
DOMINION TERM VA 2300   73     150/  8/ 10 1017.1S
KIPTOPEKE VA     2300      76  190/  9/ 11   N/A
CHES BAY BRIDGE  2300   74 76  140/  7/ 10 1017.1F
CAPE HENRY VA    2300   72     160/  5/  5   N/A
WILLOUBY STN VA  2300   73     100/  4/  7   N/A
CAPE HENRY BUOY  2312      76                N/A     3/ 9
1ST LANDING BUOY 2300   74 76  190/  8/ 10 1017.1S   2/ 3
CAPE CHARLES BUO 2326      76                N/A     3/ 9
OFFSHORE WE BUOY 2321      75                N/A     4/ 9
64NM E OF VA BCH 2350   76 76  160/ 16/ 19 1017.7R   4/ 5   2/ 9
DUCK PIER NC     2300   75 77  170/  9/ 12 1017.2R
44056 DUCK FRF   2311      77                N/A     3/ 8
OREGON INLET NC  2300   75 77  150/  5/  7 1018.0R
HATTERAS NC      2300   78 77  130/  6/  9 1017.7R
DIAMOND SHLS NC  2350   79 80  150/ 16/ 17 1017.8S   3/ 8   2/ 8
CAPE LOOKOUT NC  0000   78     130/  9/ 10 1017.6R
$$



USA.gov is the U.S. government's official web portal to all federal, state and local government web resources and services.